STARLINK-31751, 59574

Orbit data source: Space-Track

STARLINK-31751, 59574 is a payload satellite owned by SpaceX/Seattle (US) in LEO that was launched on Tue, 23 Apr 2024 UTC via an FALCON 9 launch vehicle from the Air Force Eastern Test Range (AFETR). Payload-class satellites include a variety of spacecraft equipped with specific instruments for various scientific and technological missions. These include communications satellites like Starlink; space stations such as the ISS; scientific satellites like the Hubble; Earth observation satellites from companies like Planet Labs, Umbra, and HawkEye 360; GPS; miniature CubeSats for education and research; and military/defense satellites.

Loading next visibility...
Identifier
59574, 2024-076L
Orbit
LEO
Last TLE update
21 hours ago
Origin
Manufacturer
SpaceX/Seattle
Mission
Operational spacecraft
Bus & Motor
STARLINK V2M, Unknown motor
Mass
730 kg wet, ~700 kg dry
Launch date (UTC)
2024-04-23 (1 year ago)
Launch vehicle
FALCON 9
Launch site
Air Force Eastern Test Range (AFETR)
Object type
Payload
Rocket body
Debris
Shape & HBR
Unknown
Radar Cross Section
Large (>1 m²)

Expand to show TLE details & history

TLE from 21 hours ago
0 STARLINK-31751
1 59574U 24076L   25181.52458914  .00000263  00000-0  19069-4 0  9994
2 59574  43.0019 353.4204 0000831 270.2939  89.7818 15.27580653 67932
Epoch: 2025-06-30T12:35Z
TLE epoch observation values (Epoch: 2025-06-30T12:35:24.501Z)
Latitude
0.00001°
Longitude
-114.26483°
Altitude
482.821 km
Speed
7.626 km/s
True Right ascension
23h 33m 40s
True Declination
0° 00' 00"
Sunlit
Object was in daylight at epoch
Visualization orbit readout
Latitude
27.55566°
Longitude
26.98202°
Altitude
483.674 km
Speed
7.628 km/s
Apparent Right ascension
09h 05m 21s
Apparent Declination
-4° 45' 33"
Sunlit
Object is in daylight
Visualization observer readout
Local Sidereal Time
21:13:40
Azimuth
3.597° NNE
Elevation
-54.793°
Doppler factor
1
Orbital elements
Apogee altitude
485.562 km
Perigee altitude
484.422 km
Semi-major axis
6,863.129 km
Eccentricity
0.00008
Inclination
43.0019°
RAAN
353.4204°
Arg. of periapsis
270.2939°
True anomaly
Unknown
Mean anomaly
89.7818°
Eccentric anomaly
Unknown
Mean motion
3.81733 °/min
Orbital period
94.31 mins
BSTAR
0.000019069
Loading maneuver chart data...
Loading SW <> Apogee altitude chart data...
Loading historical data...
Loading historical data...
Loading historical data...
Loading historical data...
Loading historical data...
Loading historical data...
Loading historical data...

STARLINK-31751 Visibility forecast

Observer location: undefined°, undefined°

Span
Click to sort rows by Start time (UTC) header in descending order
Start Az.
Max El. time (UTC)
Max El. Az.
Max El.
End time (UTC)
End Az.
4 mins2025-07-01 13:53:22.404Z182.242° SSW2025-07-01 13:55:22.404Z143.296° SSE18.647°2025-07-01 13:57:22.404Z105.18° ESE
6 mins2025-07-01 15:31:22.404Z246.061° WSW2025-07-01 15:34:22.404Z88.192° E42.482°2025-07-01 15:37:22.404Z72.878° E
6 mins2025-07-01 17:10:22.404Z284.655° WNW2025-07-01 17:13:22.404Z19.787° NNE37.291°2025-07-01 17:16:22.404Z73.977° E
5 mins2025-07-01 18:50:22.404Z293.743° NW2025-07-01 18:52:22.404Z45.649° ENE43.806°2025-07-01 18:55:22.404Z100.904° ESE
4 mins2025-07-01 20:29:22.404Z254.125° W2025-07-01 20:31:22.404Z198.549° SSW26.09°2025-07-01 20:33:22.404Z157.498° SSE
|